STARLINK-36343

Last updated on Sun Mar 15 2026 00:02:07 GMT+0000 (Coordinated Universal Time)

1 67816U 26032V 26073.47504244 .00323052 00000+0 20755-2 0 9994 2 67816 97.2835 260.3011 0001823 103.6516 256.4952 15.75305412 5543
UTC large
Height (km)
Speed (km/s)
/
Latitude / Longitude
Inclination (degrees)
Orbital Period (minutes)
Azimuth
Elevation
Range (km)
Doppler Factor

Next 0 passes for location: London (51.5072 / 0.1276)

Sorry there are no passes over London.